Grand Forks International Airport
KGFK : now visible

Airfield :











YOU CAN JOIN US ON...

 
LOGIN :

Register | Disclaimer

   EN    FR    IT 

 









Legend :    VFR   Marginal VFR   IFR   Intensive IFR   Very Intensive IFR
Visi :
Ceiling :
>= 8 km
>= 3000ft
5 to 8 km
1000 to 3000 ft
1500m to 5 km
500 to 1000 ft
800 to 1500m
200 to 500 ft
< 800m
< 200 ft
Symbols :   Thunderstorms  Fog  Heavy snow  Heavy precipitations  Wind > 20 kt






- Airport Elevation : 845 ft
- IATA code : GFK


KGFK - Grand Forks International

CURRENT METAR :
  • 161153Z 34008KT 10SM SCT050 OVC100 01/M03 A3020 RMK AO2 SLP236 T00111028 10022 20011 55002

EXPIRED METARs :
  • 161053Z 35008KT 10SM OVC050 01/M03 A3020 RMK AO2 SLP235 T00111028
  • 160953Z AUTO 35010KT 10SM OVC050 01/M03 A3020 RMK AO2 SLP235 T00111028

TAF KGFK
Valid from the 16 at 12:00 until the 17 at 12:00 UTC


161122Z 1612/1712 34008KT P6SM BKN035
FM161600 35012KT P6SM BKN025
FM162200 34008KT P6SM BKN035
FM170100 34009KT P6SM SCT040
KZMP FIR / North America



MET'MAP, your aeronautical weather chart ! - Copyright ORBIFLY December 2007 - Disclaimer

ORBIFLY MET'MAP TEAM :

Programming & Development : Alexandra Zaïnal
Concept & original design : Baudouin d'Aumeries
Assistance for programming : Marc-Olivier Méhu
Technical & hardware support : Manuel Goepfert

Contact : metmap@orbifly.com




SOURCES & CREDITS :

   NOAA       Earth
Advisory